1486785600.25,57220,9.56,73728.5,-8.97,-11.11,-11.67,0,*55
1486785601.48,57221,9.56,73730.0,-8.97,-11.11,-11.77,0,*55
1486785602.73,57222,9.56,73726.3,-8.99,-11.11,-11.77,0,*58
1486785603.97,57223,9.56,73732.3,-8.97,-11.19,-11.67,0,*5E
1486785605.21,57224,9.56,73732.3,-8.97,-11.11,-11.89,0,*51
1486785606.46,57225,9.56,73732.8,-8.99,-11.19,-11.81,0,*5E
1486785607.68,57226,9.56,73730.8,-8.97,-11.19,-11.81,0,*53
1486785608.94,57227,9.56,73732.5,-8.99,-11.19,-11.81,0,*5C
1486785610.19,57228,9.56,73734.0,-8.99,-11.23,-11.81,0,*5A
1486785611.42,57229,9.56,73732.3,-8.97,-11.19,-11.81,0,*5C
1486785612.68,57230,9.56,73734.3,-8.99,-11.23,-11.81,0,*53
1486785613.93,57231,9.56,73730.3,-8.99,-11.23,-11.81,0,*52
1486785615.17,57232,9.56,73728.8,-8.97,-11.19,-11.89,0,*5E
1486785616.42,57233,9.56,73730.3,-8.99,-11.19,-11.81,0,*59
1486785617.65,57234,9.56,73728.3,-8.97,-11.19,-11.89,0,*58
1486785618.92,57235,9.56,73730.3,-8.99,-11.23,-11.89,0,*5E
1486785620.15,57236,9.56,73730.8,-8.97,-11.23,-11.81,0,*5B
1486785621.38,57237,9.56,73730.3,-8.97,-11.23,-11.81,0,*5A
1486785622.65,57238,9.56,73730.0,-8.99,-11.23,-11.89,0,*53
1486785623.9,57239,9.56,73728.3,-8.99,-11.19,-11.81,0,*53
1486785625.13,57240,9.56,73730.8,-8.97,-11.19,-11.89,0,*5B
1486785626.39,57241,9.56,73730.0,-8.99,-11.19,-11.89,0,*54
1486785627.65,57242,9.56,73730.8,-8.99,-11.19,-11.89,0,*57
1486785628.9,57243,9.56,73728.0,-8.99,-11.23,-11.81,0,*57
1486785630.13,57244,9.56,73726.0,-8.97,-11.19,-11.81,0,*57
1486785631.38,57245,9.56,73726.8,-8.99,-11.19,-11.81,0,*58
1486785632.64,57246,9.56,73730.0,-8.99,-11.19,-11.89,0,*53
1486785633.9,57247,9.56,73726.8,-8.99,-11.23,-11.81,0,*53
1486785635.15,57248,9.56,73728.3,-8.99,-11.23,-11.81,0,*5C
1486785636.4,57249,9.56,73732.0,-8.99,-11.19,-11.81,0,*54
1486785637.66,57250,9.56,73730.0,-8.99,-11.19,-11.89,0,*54
1486785638.91,57251,9.56,73728.3,-8.99,-11.19,-11.81,0,*5D
1486785640.17,57252,9.56,73730.0,-8.99,-11.11,-11.81,0,*56
1486785641.4,57253,9.56,73730.0,-8.97,-11.19,-11.89,0,*59
1486785642.66,57254,9.56,73726.0,-8.99,-11.23,-11.81,0,*51
1486785643.91,57255,9.56,73734.0,-8.99,-11.19,-11.81,0,*59
1486785645.16,57256,9.56,73730.5,-8.99,-11.19,-11.81,0,*5A
1486785646.39,57257,9.56,73728.5,-8.97,-11.23,-11.81,0,*5C
1486785647.66,57258,9.56,73728.5,-8.99,-11.23,-11.89,0,*55
1486785648.91,57259,9.56,73730.0,-8.99,-11.19,-11.89,0,*5D
1486785650.17,57260,9.56,73726.3,-8.99,-11.19,-11.81,0,*5F
1486785651.43,57261,9.56,73730.0,-8.99,-11.23,-11.89,0,*5F
1486785652.68,57262,9.56,73730.8,-8.99,-11.23,-11.81,0,*54
1486785653.94,57263,9.56,73726.5,-8.99,-11.19,-11.81,0,*5C
1486785655.2,57264,9.56,73726.0,-8.99,-11.23,-11.89,0,*5A
1486785656.46,57265,9.56,73728.5,-8.99,-11.23,-11.81,0,*53
1486785657.71,57266,9.56,73730.0,-8.99,-11.19,-11.81,0,*59
1486785658.97,57267,9.56,73732.3,-8.99,-11.23,-11.89,0,*59
1486785660.23,57268,9.56,73734.0,-9.03,-11.23,-11.85,0,*58
1486785661.49,57269,9.56,73734.8,-8.99,-11.19,-11.81,0,*56
1486785662.74,57270,9.56,73732.0,-8.99,-11.19,-11.81,0,*5E
1486785664.03,57271,9.56,73732.3,-8.99,-11.07,-11.67,0,*58
1486785665.28,57272,9.56,73734.0,-8.99,-11.11,-11.77,0,*5D
1486785666.53,57273,9.56,73730.3,-8.99,-11.11,-11.77,0,*5C
1486785667.79,57274,9.56,73728.8,-9.03,-11.15,-11.81,0,*54
1486785669.04,57275,9.56,73732.5,-8.99,-11.19,-11.77,0,*52
1486785670.3,57276,9.56,73730.3,-8.99,-11.19,-11.77,0,*51
1486785671.55,57277,9.56,73728.5,-8.99,-11.19,-11.81,0,*59
1486785672.78,57278,9.56,73728.0,-8.97,-11.19,-11.89,0,*50
1486785674.03,57279,9.56,73730.8,-8.99,-11.19,-11.81,0,*57
1486785675.33,57280,9.56,73730.8,-9.03,-11.29,-11.93,0,*53
1486785676.59,57281,9.56,73730.8,-8.99,-11.19,-11.89,0,*58
1486785677.84,57282,9.56,73732.8,-8.99,-11.23,-11.81,0,*5A
1486785679.09,57283,9.56,73732.3,-8.99,-11.19,-11.81,0,*52
1486785680.35,57284,9.56,73730.8,-8.99,-11.11,-11.81,0,*5D
1486785681.6,57285,9.56,73730.5,-8.99,-11.19,-11.77,0,*5D
1486785682.88,57286,9.56,73730.8,-8.99,-11.07,-11.77,0,*51
1486785684.14,57287,9.56,73732.8,-9.03,-11.15,-11.81,0,*58
1486785685.4,57288,9.56,73730.8,-8.99,-11.11,-11.77,0,*58
1486785686.66,57289,9.56,73728.3,-9.03,-11.23,-11.81,0,*53
1486785687.92,57290,9.56,73730.0,-8.99,-11.11,-11.67,0,*50
1486785689.17,57291,9.56,73730.5,-8.99,-11.19,-11.77,0,*58
1486785690.43,57292,9.56,73734.5,-9.03,-11.23,-11.85,0,*5D
1486785691.68,57293,9.56,73730.8,-8.99,-11.19,-11.81,0,*53
1486785692.93,57294,9.56,73730.0,-8.99,-11.19,-11.77,0,*5D
1486785694.19,57295,9.56,73734.0,-8.99,-11.23,-11.77,0,*55
1486785695.45,57296,9.56,73728.3,-8.99,-11.19,-11.89,0,*5E
1486785696.71,57297,9.56,73730.0,-8.99,-11.23,-11.89,0,*56
1486785697.98,57298,9.56,73728.0,-9.03,-11.23,-11.85,0,*57
1486785699.26,57299,9.56,73730.8,-9.03,-11.29,-11.81,0,*58
1486785700.55,57300,9.56,73732.8,-9.03,-11.29,-11.81,0,*59
1486785701.84,57301,9.56,73734.5,-9.03,-11.29,-11.85,0,*5C
1486785703.13,57302,9.56,73734.3,-9.03,-11.37,-11.85,0,*50
1486785704.43,57303,9.56,73734.3,-9.03,-11.29,-11.93,0,*59
1486785705.69,57304,9.56,73730.0,-9.03,-11.23,-11.93,0,*54
1486785706.98,57305,9.56,73728.3,-9.03,-11.37,-11.93,0,*50
1486785708.27,57306,9.56,73728.3,-9.03,-11.37,-11.93,0,*53
1486785709.54,57307,9.56,73730.0,-9.03,-11.41,-11.85,0,*54
1486785710.83,57308,9.56,73728.0,-9.03,-11.37,-11.93,0,*5D
1486785712.11,57309,9.56,73732.0,-9.03,-11.37,-11.93,0,*5C
1486785713.38,57310,9.56,73728.3,-9.05,-11.37,-11.97,0,*56
1486785714.64,57311,9.56,73734.3,-9.03,-11.23,-11.93,0,*50
1486785715.94,57312,9.56,73728.0,-9.03,-11.29,-11.93,0,*59
1486785717.23,57313,9.56,73728.3,-9.03,-11.29,-11.93,0,*58
1486785718.53,57314,9.56,73730.3,-9.03,-11.29,-11.93,0,*5F
1486785719.79,57315,9.56,73728.8,-9.05,-11.37,-11.97,0,*53
1486785721.06,57316,9.56,73728.3,-9.03,-11.41,-11.97,0,*57
1486785722.3,57317,9.56,73730.3,-9.05,-11.41,-11.93,0,*54
1486785723.59,57318,9.56,73732.0,-9.03,-11.37,-11.93,0,*5C
1486785724.86,57319,9.56,73732.8,-9.03,-11.41,-11.93,0,*5C
1486785726.13,57320,9.56,73734.0,-9.05,-11.37,-11.93,0,*51
1486785727.42,57321,9.56,73730.3,-9.03,-11.29,-11.93,0,*59
1486785728.72,57322,9.56,73732.8,-9.03,-11.29,-11.85,0,*5D
1486785730.01,57323,9.56,73730.3,-9.03,-11.29,-11.93,0,*5B
1486785731.31,57324,9.56,73732.0,-9.03,-11.29,-11.93,0,*5C
1486785732.58,57325,9.56,73730.5,-9.05,-11.29,-11.93,0,*5B
1486785733.84,57326,9.56,73734.8,-9.03,-11.41,-11.97,0,*54
1486785735.11,57327,9.56,73730.5,-9.05,-11.37,-11.93,0,*56
1486785736.35,57328,9.56,73732.3,-9.05,-11.23,-11.85,0,*5B
1486785737.62,57329,9.56,73732.8,-9.05,-11.29,-11.93,0,*57
1486785738.89,57330,9.56,73736.0,-9.05,-11.29,-11.93,0,*5F
1486785740.16,57331,9.56,73734.5,-9.03,-11.23,-11.93,0,*52
1486785741.43,57332,9.56,73738.8,-9.05,-11.29,-11.93,0,*5D
1486785742.72,57333,9.56,73736.0,-9.03,-11.29,-11.85,0,*5D
1486785743.97,57334,9.56,73732.0,-9.05,-11.23,-11.93,0,*51
1486785745.21,57335,9.56,73734.3,-9.05,-11.23,-11.85,0,*57
1486785746.48,57336,9.56,73734.0,-9.05,-11.29,-11.85,0,*5E
1486785747.74,57337,9.56,73734.5,-9.05,-11.29,-11.85,0,*5F
1486785749.01,57338,9.56,73728.5,-9.05,-11.29,-11.93,0,*57
1486785750.31,57339,9.56,73732.8,-9.03,-11.29,-11.93,0,*50
1486785751.57,57340,9.56,73736.0,-9.05,-11.37,-11.85,0,*50
1486785752.84,57341,9.56,73734.3,-9.05,-11.37,-11.93,0,*56
1486785754.11,57342,9.56,73732.8,-9.05,-11.29,-11.85,0,*5D
1486785755.39,57343,9.56,73736.0,-9.03,-11.37,-11.85,0,*55
1486785756.66,57344,9.56,73738.3,-9.05,-11.29,-11.93,0,*5C
1486785757.93,57345,9.56,73732.8,-9.05,-11.29,-11.85,0,*5A
1486785759.2,57346,9.56,73736.0,-9.05,-11.29,-11.93,0,*5E
1486785760.47,57347,9.56,73734.5,-9.05,-11.29,-11.93,0,*5F
1486785761.77,57348,9.56,73732.5,-9.03,-11.29,-11.93,0,*56
1486785763.04,57349,9.56,73736.8,-9.05,-11.29,-11.93,0,*51
1486785764.31,57350,9.56,73736.5,-9.05,-11.29,-11.93,0,*59
1486785765.57,57351,9.56,73734.0,-9.05,-11.37,-11.85,0,*50
1486785766.84,57352,9.56,73732.8,-9.05,-11.37,-11.93,0,*54
1486785768.1,57353,9.56,73728.3,-9.05,-11.37,-11.97,0,*51
1486785769.36,57354,9.56,73732.0,-9.05,-11.37,-11.97,0,*56
1486785770.63,57355,9.56,73730.3,-9.05,-11.37,-12.07,0,*5D
1486785771.89,57356,9.56,73730.3,-9.05,-11.37,-12.07,0,*5E
1486785773.15,57357,9.56,73730.0,-9.05,-11.37,-11.97,0,*55
1486785774.41,57358,9.56,73730.3,-9.05,-11.37,-11.97,0,*5A
1486785775.66,57359,9.56,73730.8,-9.05,-11.41,-11.93,0,*5E
1486785776.9,57360,9.56,73732.5,-9.07,-11.41,-12.03,0,*5C
1486785778.18,57361,9.56,73728.8,-9.07,-11.33,-11.97,0,*56
1486785779.47,57362,9.56,73726.8,-9.07,-11.33,-11.97,0,*55
1486785780.76,57363,9.56,73728.3,-9.07,-11.29,-11.97,0,*5F
1486785782.04,57364,9.56,73728.3,-9.07,-11.33,-11.97,0,*53
1486785783.33,57365,9.56,73728.3,-9.07,-11.29,-11.89,0,*56
1486785784.62,57366,9.56,73728.0,-9.07,-11.29,-11.89,0,*55
1486785785.91,57367,9.56,73728.0,-9.07,-11.33,-11.97,0,*50
1486785787.2,57368,9.56,73730.5,-9.07,-11.33,-11.89,0,*50
1486785788.48,57369,9.56,73728.0,-9.07,-11.33,-11.97,0,*5E
1486785789.77,57370,9.56,73730.3,-9.07,-11.29,-11.89,0,*52
1486785791.07,57371,9.56,73728.3,-9.07,-11.29,-11.89,0,*53
1486785792.35,57372,9.56,73730.8,-9.07,-11.33,-11.89,0,*5B
1486785793.64,57373,9.56,73730.3,-9.07,-11.33,-11.89,0,*5A
1486785794.93,57374,9.56,73730.8,-9.07,-11.29,-11.89,0,*56
1486785796.2,57375,9.56,73728.5,-9.09,-11.33,-11.89,0,*52
1486785797.47,57376,9.56,73726.8,-9.09,-11.33,-11.89,0,*51
1486785798.76,57377,9.56,73728.0,-9.07,-11.33,-11.97,0,*51
1486785800.05,57378,9.56,73730.0,-9.07,-11.33,-11.89,0,*51
1486785801.34,57379,9.56,73730.8,-9.07,-11.29,-11.89,0,*5B
1486785802.63,57380,9.56,73732.0,-9.07,-11.29,-11.89,0,*5D
1486785803.9,57381,9.56,73730.8,-9.09,-11.33,-11.97,0,*56
1486785805.18,57382,9.56,73728.8,-9.07,-11.33,-11.97,0,*5B
1486785806.47,57383,9.56,73728.3,-9.07,-11.33,-11.97,0,*5A
1486785807.73,57384,9.56,73730.8,-9.07,-11.41,-11.89,0,*57
1486785809.0,57385,9.56,73730.8,-9.07,-11.41,-11.89,0,*56
1486785810.28,57386,9.56,73730.8,-9.07,-11.33,-11.97,0,*5F
1486785811.52,57387,9.56,73730.3,-9.07,-11.41,-12.03,0,*55
1486785812.81,57388,9.56,73734.5,-9.07,-11.33,-11.97,0,*51
1486785814.09,57389,9.56,73730.5,-9.07,-11.33,-11.97,0,*50
1486785815.36,57390,9.56,73726.8,-9.09,-11.29,-11.97,0,*5D
1486785816.65,57391,9.56,73730.0,-9.07,-11.33,-11.89,0,*56
1486785817.91,57392,9.56,73734.3,-9.07,-11.41,-11.97,0,*5F
1486785819.18,57393,9.56,73730.5,-9.09,-11.33,-11.97,0,*55
1486785820.43,57394,9.56,73728.0,-9.09,-11.41,-11.97,0,*57
1486785821.67,57395,9.56,73728.8,-9.09,-11.41,-11.97,0,*56
1486785822.96,57396,9.56,73734.3,-9.07,-11.33,-11.97,0,*5E
1486785824.25,57397,9.56,73730.0,-9.07,-11.33,-11.89,0,*50
1486785825.49,57398,9.56,73728.8,-9.09,-11.29,-12.03,0,*5B
1486785826.72,57399,9.56,73730.3,-9.09,-11.41,-12.03,0,*54
1486785827.96,57400,9.56,73730.0,-9.09,-11.41,-11.97,0,*5D
1486785829.21,57401,9.56,73732.0,-9.09,-11.41,-11.97,0,*5C
1486785830.45,57402,9.56,73728.8,-9.09,-11.41,-11.97,0,*5F
1486785831.74,57403,9.56,73728.8,-9.07,-11.29,-11.97,0,*5E
1486785832.99,57404,9.56,73734.3,-9.09,-11.33,-12.03,0,*52
1486785834.27,57405,9.56,73732.5,-9.07,-11.33,-11.97,0,*53
1486785835.56,57406,9.56,73728.5,-9.07,-11.33,-11.89,0,*5F
1486785836.83,57407,9.56,73732.8,-9.09,-11.33,-11.97,0,*5F
1486785838.12,57408,9.56,73732.8,-9.07,-11.33,-11.89,0,*51
1486785839.4,57409,9.56,73730.0,-9.07,-11.29,-11.97,0,*54
1486785840.69,57410,9.56,73734.0,-9.07,-11.33,-11.89,0,*58
1486785841.98,57411,9.56,73730.8,-9.07,-11.33,-11.97,0,*56
1486785843.22,57412,9.56,73730.5,-9.07,-11.41,-12.03,0,*5E
1486785844.46,57413,9.56,73730.5,-9.09,-11.45,-11.97,0,*5B
1486785845.69,57414,9.56,73732.3,-9.09,-11.45,-12.03,0,*52
1486785846.96,57415,9.56,73730.0,-9.07,-11.45,-11.97,0,*53
1486785848.18,57416,9.56,73734.3,-9.09,-11.45,-12.03,0,*50
1486785849.4,57417,9.56,73732.8,-9.09,-11.41,-12.03,0,*55
1486785850.64,57418,9.56,73732.0,-9.07,-11.41,-12.03,0,*54
1486785851.87,57419,9.56,73732.3,-9.09,-11.41,-12.03,0,*5B
1486785853.09,57420,9.56,73730.0,-9.09,-11.45,-12.03,0,*55
1486785854.35,57421,9.56,73728.3,-9.07,-11.33,-12.03,0,*5B
1486785855.62,57422,9.56,73734.5,-9.07,-11.33,-12.03,0,*58
1486785856.86,57423,9.56,73730.3,-9.09,-11.33,-12.03,0,*57
1486785858.1,57424,9.56,73730.8,-9.07,-11.41,-12.03,0,*5B
1486785859.37,57425,9.56,73728.3,-9.09,-11.33,-11.97,0,*5F
1486785860.63,57426,9.56,73732.5,-9.07,-11.41,-11.97,0,*57
1486785861.88,57427,9.56,73734.3,-9.09,-11.41,-11.97,0,*58
1486785863.1,57428,9.56,73730.8,-9.09,-11.41,-12.03,0,*59
1486785864.32,57429,9.56,73732.3,-9.09,-11.41,-12.03,0,*58
1486785865.55,57430,9.56,73728.5,-9.09,-11.45,-12.03,0,*54
1486785866.79,57431,9.56,73728.0,-9.09,-11.55,-12.03,0,*54
1486785868.02,57432,9.56,73728.3,-9.09,-11.45,-12.03,0,*56
1486785869.27,57433,9.56,73728.0,-9.09,-11.45,-12.11,0,*54
1486785870.5,57434,9.56,73730.0,-9.09,-11.45,-12.03,0,*50
1486785871.75,57435,9.56,73730.5,-9.09,-11.45,-12.11,0,*52
1486785872.99,57436,9.56,73728.3,-9.09,-11.41,-12.11,0,*55
1486785874.24,57437,9.56,73728.3,-9.09,-11.41,-12.11,0,*54
1486785875.46,57438,9.56,73730.0,-9.09,-11.41,-12.03,0,*58
1486785876.69,57439,9.56,73730.5,-9.09,-11.41,-12.03,0,*59
1486785877.91,57440,9.56,73730.3,-9.09,-11.41,-12.03,0,*57
1486785879.13,57441,9.56,73730.3,-9.09,-11.41,-12.03,0,*56
1486785880.35,57442,9.56,73728.5,-9.09,-11.41,-12.03,0,*55
1486785881.58,57443,9.56,73728.0,-9.09,-11.45,-12.03,0,*50
1486785882.8,57444,9.56,73730.3,-9.09,-11.41,-12.03,0,*53
1486785884.07,57445,9.56,73734.5,-9.07,-11.45,-11.97,0,*56
1486785885.34,57446,9.56,73726.8,-9.09,-11.29,-11.89,0,*5E
1486785886.59,57447,9.56,73730.3,-9.09,-11.41,-11.89,0,*51
1486785887.86,57448,9.56,73734.0,-9.09,-11.33,-11.97,0,*54
1486785889.13,57449,9.56,73734.0,-9.09,-11.33,-11.97,0,*55
1486785890.4,57450,9.56,73730.5,-9.09,-11.29,-11.97,0,*56
1486785891.67,57451,9.56,73728.8,-9.09,-11.33,-11.97,0,*5C
1486785892.94,57452,9.56,73730.3,-9.09,-11.29,-11.89,0,*5B
1486785894.24,57453,9.56,73730.5,-9.07,-11.29,-11.89,0,*54
1486785895.51,57454,9.56,73730.5,-9.09,-11.33,-11.89,0,*56
1486785896.78,57455,9.56,73728.0,-9.09,-11.29,-11.89,0,*5C
1486785898.05,57456,9.56,73726.0,-9.09,-11.33,-11.89,0,*54
1486785899.35,57457,9.56,73730.3,-9.11,-11.37,-11.93,0,*53
1486785900.61,57458,9.56,73728.3,-9.11,-11.37,-12.03,0,*56
1486785901.88,57459,9.56,73728.8,-9.11,-11.37,-12.03,0,*57
1486785903.15,57460,9.56,73728.8,-9.11,-11.33,-12.03,0,*59
1486785904.44,57461,9.56,73730.3,-9.11,-11.37,-11.93,0,*56
1486785905.71,57462,9.56,73730.3,-9.09,-11.33,-11.97,0,*5C
1486785906.98,57463,9.56,73728.8,-9.09,-11.33,-11.89,0,*52
1486785908.25,57464,9.56,73728.8,-9.09,-11.33,-11.89,0,*55
1486785909.53,57465,9.56,73728.3,-9.09,-11.29,-11.89,0,*5F
1486785910.8,57466,9.56,73728.5,-9.09,-11.29,-11.89,0,*5C
1486785912.07,57467,9.56,73726.3,-9.09,-11.33,-11.89,0,*56
1486785913.35,57468,9.56,73730.0,-9.09,-11.29,-11.89,0,*52
1486785914.64,57469,9.56,73730.8,-9.07,-11.29,-11.89,0,*5D
1486785915.93,57470,9.56,73732.5,-9.07,-11.29,-11.89,0,*55
1486785917.2,57471,9.56,73732.8,-9.09,-11.33,-11.89,0,*51
1486785918.47,57472,9.56,73732.3,-9.11,-11.37,-12.03,0,*5E
1486785919.76,57473,9.56,73726.8,-9.11,-11.37,-11.93,0,*55
1486785921.03,57474,9.56,73730.8,-9.09,-11.29,-11.97,0,*50
1486785922.31,57475,9.56,73728.8,-9.09,-11.29,-11.89,0,*5E
1486785923.58,57476,9.56,73730.0,-9.09,-11.33,-11.89,0,*56
1486785924.85,57477,9.56,73732.3,-9.09,-11.33,-11.89,0,*57
1486785926.13,57478,9.56,73732.0,-9.09,-11.29,-11.89,0,*53
1486785927.4,57479,9.56,73732.5,-9.09,-11.29,-11.89,0,*52
1486785928.69,57480,9.56,73730.8,-9.07,-11.33,-11.89,0,*51
1486785929.97,57481,9.56,73730.0,-9.09,-11.29,-11.89,0,*55
1486785931.25,57482,9.56,73732.5,-9.07,-11.33,-11.89,0,*53
1486785932.52,57483,9.56,73732.3,-9.09,-11.33,-11.89,0,*5C
1486785933.8,57484,9.56,73728.0,-9.09,-11.29,-11.97,0,*5F
1486785935.07,57485,9.56,73734.5,-9.09,-11.33,-11.89,0,*5A
1486785936.34,57486,9.56,73730.5,-9.09,-11.29,-11.89,0,*52
1486785937.59,57487,9.56,73728.0,-9.09,-11.41,-11.97,0,*52
1486785938.85,57488,9.56,73730.3,-9.07,-11.41,-11.97,0,*53
1486785940.14,57489,9.56,73728.3,-9.07,-11.33,-11.97,0,*57
1486785941.4,57490,9.56,73736.3,-9.07,-11.41,-11.97,0,*5A
1486785942.67,57491,9.56,73732.0,-9.09,-11.33,-11.97,0,*50
1486785943.93,57492,9.56,73736.3,-9.09,-11.33,-11.97,0,*53
1486785945.18,57493,9.56,73732.3,-9.09,-11.41,-11.97,0,*57
1486785946.41,57494,9.56,73738.8,-9.09,-11.45,-12.03,0,*5A
1486785947.63,57495,9.56,73734.3,-9.09,-11.41,-12.03,0,*5F
1486785948.85,57496,9.56,73736.0,-9.09,-11.45,-12.03,0,*58
1486785950.08,57497,9.56,73734.5,-9.09,-11.41,-12.03,0,*5D
1486785951.32,57498,9.56,73736.0,-9.07,-11.41,-12.03,0,*5C
1486785952.58,57499,9.56,73738.5,-9.07,-11.45,-12.11,0,*5A
1486785953.83,57500,9.56,73736.3,-9.07,-11.45,-12.03,0,*58
1486785955.05,57501,9.56,73734.0,-9.09,-11.45,-12.03,0,*57
1486785956.28,57502,9.56,73734.8,-9.09,-11.45,-12.03,0,*54
1486785957.53,57503,9.56,73738.0,-9.09,-11.45,-12.11,0,*56
1486785958.77,57504,9.56,73736.5,-9.09,-11.55,-12.03,0,*53
1486785960.06,57505,9.56,73736.0,-9.07,-11.55,-12.11,0,*5F
1486785961.29,57506,9.56,73734.3,-9.09,-11.45,-12.03,0,*50
1486785962.56,57507,9.56,73736.8,-9.09,-11.59,-12.11,0,*5F
1486785963.83,57508,9.56,73734.5,-9.09,-11.59,-12.15,0,*54
1486785965.11,57509,9.56,73732.5,-9.07,-11.59,-12.15,0,*5B
1486785966.35,57510,9.56,73736.0,-9.09,-11.59,-12.25,0,*5E
1486785967.62,57511,9.56,73734.5,-9.09,-11.59,-12.15,0,*5C
1486785968.89,57512,9.56,73734.5,-9.11,-11.63,-12.21,0,*58
1486785970.16,57513,9.56,73738.3,-9.09,-11.59,-12.15,0,*5E
1486785971.43,57514,9.56,73734.8,-9.11,-11.63,-12.21,0,*5E
1486785972.71,57515,9.56,73736.5,-9.11,-11.63,-12.21,0,*5F
1486785973.98,57516,9.56,73736.5,-9.11,-11.59,-12.21,0,*55
1486785975.25,57517,9.56,73738.3,-9.11,-11.59,-12.29,0,*5C
1486785976.49,57518,9.56,73738.3,-9.13,-11.63,-12.21,0,*50
1486785977.76,57519,9.56,73732.0,-9.11,-11.63,-12.29,0,*5B
1486785979.03,57520,9.56,73738.0,-9.11,-11.63,-12.21,0,*59
1486785980.3,57521,9.56,73738.0,-9.11,-11.63,-12.21,0,*58
1486785981.55,57522,9.56,73736.3,-9.09,-11.59,-12.25,0,*5F
1486785982.82,57523,9.56,73732.5,-9.09,-11.55,-12.15,0,*51
1486785984.09,57524,9.56,73730.8,-9.11,-11.59,-12.21,0,*54
1486785985.36,57525,9.56,73734.0,-9.11,-11.59,-12.21,0,*55
1486785986.63,57526,9.56,73736.5,-9.11,-11.63,-12.21,0,*5F
1486785987.9,57527,9.56,73736.5,-9.11,-11.59,-12.21,0,*57
1486785989.17,57528,9.56,73736.3,-9.11,-11.63,-12.21,0,*51
1486785990.44,57529,9.56,73734.0,-9.11,-11.59,-12.21,0,*59
1486785991.74,57530,9.56,73734.0,-9.11,-11.63,-12.15,0,*5F
1486785993.03,57531,9.56,73734.3,-9.11,-11.63,-12.15,0,*5E
1486785994.32,57532,9.56,73736.0,-9.11,-11.59,-12.15,0,*54
1486785995.58,57533,9.56,73734.0,-9.13,-11.59,-12.15,0,*57
1486785996.87,57534,9.56,73732.8,-9.11,-11.59,-12.15,0,*52
1486785998.14,57535,9.56,73732.3,-9.13,-11.63,-12.15,0,*58
1486785999.4,57536,9.56,73732.5,-9.13,-11.59,-12.15,0,*52
1486786000.67,57537,9.56,73734.5,-9.11,-11.59,-12.21,0,*56
1486786001.95,57538,9.56,73730.5,-9.11,-11.59,-12.21,0,*59
1486786003.22,57539,9.56,73730.5,-9.11,-11.59,-12.29,0,*50
1486786004.49,57540,9.56,73732.0,-9.11,-11.63,-12.21,0,*5F
1486786005.76,57541,9.56,73728.8,-9.11,-11.63,-12.21,0,*5E
1486786007.05,57542,9.56,73734.5,-9.11,-11.63,-12.15,0,*5A
1486786008.32,57543,9.56,73732.0,-9.11,-11.63,-12.29,0,*54
1486786009.61,57544,9.56,73728.0,-9.11,-11.63,-12.15,0,*5C
1486786010.9,57545,9.56,73734.8,-9.11,-11.63,-12.15,0,*5D
1486786012.18,57546,9.56,73728.3,-9.11,-11.63,-12.21,0,*59
1486786013.42,57547,9.56,73724.0,-9.13,-11.59,-12.21,0,*53
1486786014.69,57548,9.56,73730.3,-9.13,-11.59,-12.07,0,*58
1486786015.98,57549,9.56,73732.3,-9.11,-11.59,-12.07,0,*5B
1486786017.25,57550,9.56,73730.3,-9.13,-11.59,-12.15,0,*52
1486786018.51,57551,9.56,73722.8,-9.13,-11.59,-12.15,0,*53
1486786019.8,57552,9.56,73726.8,-9.11,-11.63,-12.15,0,*5B
1486786021.09,57553,9.56,73724.8,-9.11,-11.59,-12.15,0,*53
1486786022.39,57554,9.56,73726.5,-9.11,-11.63,-12.15,0,*5D
1486786023.68,57555,9.56,73724.8,-9.11,-11.59,-12.07,0,*56
1486786024.95,57556,9.56,73724.5,-9.13,-11.59,-12.07,0,*57
1486786026.24,57557,9.56,73728.8,-9.11,-11.59,-12.07,0,*54
1486786027.51,57558,9.56,73728.0,-9.13,-11.59,-12.07,0,*59
1486786028.77,57559,9.56,73726.3,-9.13,-11.51,-12.07,0,*50
1486786030.04,57560,9.56,73726.5,-9.13,-11.37,-11.93,0,*54
1486786031.31,57561,9.56,73726.3,-9.13,-11.37,-11.93,0,*55
1486786032.57,57562,9.56,73726.0,-9.13,-11.37,-11.93,0,*56
1486786033.84,57563,9.56,73724.8,-9.11,-11.51,-12.03,0,*5F
1486786035.1,57564,9.56,73724.3,-9.11,-11.51,-12.03,0,*58
1486786036.37,57565,9.56,73730.8,-9.11,-11.51,-12.03,0,*59
1486786037.64,57566,9.56,73728.5,-9.11,-11.51,-12.03,0,*5A
1486786038.93,57567,9.56,73724.3,-9.11,-11.51,-12.07,0,*5F
1486786040.19,57568,9.56,73728.3,-9.11,-11.51,-12.03,0,*54
1486786041.46,57569,9.56,73730.5,-9.13,-11.51,-12.07,0,*53
1486786042.7,57570,9.56,73728.5,-9.13,-11.59,-12.03,0,*57
1486786043.92,57571,9.56,73730.5,-9.13,-11.45,-12.03,0,*5B
1486786045.17,57572,9.56,73728.5,-9.11,-11.45,-12.03,0,*5A
1486786046.41,57573,9.56,73728.5,-9.13,-11.51,-12.03,0,*5C
1486786047.63,57574,9.56,73730.8,-9.13,-11.45,-12.03,0,*5E
1486786048.86,57575,9.56,73724.3,-9.13,-11.45,-12.03,0,*5F
1486786050.15,57576,9.56,73728.0,-9.11,-11.37,-11.93,0,*51
1486786051.42,57577,9.56,73728.5,-9.13,-11.37,-11.93,0,*52
1486786052.68,57578,9.56,73728.0,-9.11,-11.37,-12.03,0,*55
1486786053.96,57579,9.56,73730.0,-9.11,-11.45,-11.93,0,*5B
1486786055.25,57580,9.56,73730.5,-9.11,-11.51,-11.93,0,*58
1486786056.53,57581,9.56,73728.5,-9.11,-11.45,-11.93,0,*5C
1486786057.76,57582,9.56,73730.0,-9.13,-11.51,-12.03,0,*52
1486786059.03,57583,9.56,73730.5,-9.13,-11.51,-11.93,0,*59
1486786060.25,57584,9.56,73728.3,-9.13,-11.45,-12.03,0,*51
1486786061.52,57585,9.56,73728.8,-9.11,-11.51,-12.03,0,*57
1486786062.78,57586,9.56,73728.5,-9.11,-11.51,-12.03,0,*54
1486786064.06,57587,9.56,73730.0,-9.11,-11.45,-12.07,0,*54
1486786065.35,57588,9.56,73728.0,-9.11,-11.51,-12.07,0,*5E
1486786066.6,57589,9.56,73734.0,-9.11,-11.45,-12.03,0,*5E
1486786067.85,57590,9.56,73732.0,-9.13,-11.45,-11.93,0,*5E
1486786069.1,57591,9.56,73734.5,-9.11,-11.45,-12.03,0,*57
1486786070.32,57592,9.56,73726.8,-9.13,-11.45,-12.03,0,*56
1486786071.6,57593,9.56,73734.5,-9.11,-11.45,-11.93,0,*5F
1486786072.84,57594,9.56,73730.0,-9.11,-11.45,-12.03,0,*52
1486786074.09,57595,9.56,73732.0,-9.11,-11.45,-12.03,0,*53
1486786075.34,57596,9.56,73726.8,-9.11,-11.45,-12.03,0,*50
1486786076.59,57597,9.56,73732.5,-9.11,-11.45,-12.03,0,*51
1486786077.89,57598,9.56,73728.3,-9.11,-11.37,-11.93,0,*51
1486786079.15,57599,9.56,73730.3,-9.11,-11.51,-12.03,0,*5A
1486786080.4,57600,9.56,73730.8,-9.11,-11.45,-12.03,0,*5C
1486786081.69,57601,9.56,73728.5,-9.11,-11.51,-12.07,0,*5C
1486786082.92,57602,9.56,73728.3,-9.09,-11.45,-12.03,0,*57
1486786084.21,57603,9.56,73724.8,-9.11,-11.51,-12.07,0,*5E
1486786085.5,57604,9.56,73728.5,-9.11,-11.59,-12.07,0,*51
1486786086.8,57605,9.56,73728.8,-9.11,-11.63,-12.07,0,*59
1486786088.07,57606,9.56,73728.8,-9.11,-11.59,-12.03,0,*57
1486786089.36,57607,9.56,73730.5,-9.11,-11.59,-12.07,0,*52
1486786090.65,57608,9.56,73730.5,-9.11,-11.59,-12.15,0,*5E
1486786091.94,57609,9.56,73730.3,-9.11,-11.51,-12.07,0,*54
1486786093.23,57610,9.56,73730.5,-9.11,-11.51,-12.07,0,*5C
1486786094.52,57611,9.56,73730.5,-9.11,-11.59,-12.15,0,*56
1486786095.82,57612,9.56,73730.3,-9.11,-11.59,-12.15,0,*55
1486786097.11,57613,9.56,73732.5,-9.11,-11.51,-12.07,0,*5F
1486786098.4,57614,9.56,73732.5,-9.11,-11.51,-12.07,0,*58
1486786099.69,57615,9.56,73728.3,-9.11,-11.59,-12.15,0,*52
1486786100.98,57616,9.56,73734.3,-9.11,-11.63,-12.15,0,*58
1486786102.27,57617,9.56,73728.5,-9.11,-11.63,-12.07,0,*5A
1486786103.57,57618,9.56,73732.8,-9.11,-11.63,-12.15,0,*56
1486786104.86,57619,9.56,73730.8,-9.11,-11.63,-12.15,0,*57
1486786106.15,57620,9.56,73730.0,-9.11,-11.63,-12.15,0,*5D
1486786107.44,57621,9.56,73730.8,-9.11,-11.63,-12.15,0,*5C
1486786108.7,57622,9.56,73730.8,-9.13,-11.59,-12.15,0,*54
1486786110.0,57623,9.56,73730.5,-9.11,-11.63,-12.15,0,*5E
1486786111.24,57624,9.56,73730.5,-9.13,-11.63,-12.21,0,*5C
1486786112.51,57625,9.56,73730.8,-9.11,-11.63,-12.21,0,*5F
1486786113.78,57626,9.56,73734.3,-9.11,-11.63,-12.21,0,*5C